Find Starlink 32920

NORAD ID: 62925 Int'l Des: 2025-027 Owner: SPXS Country: US Constellation: starlink operational
LEOCIRCULAR

現在のビュー

3D地球を読み込み中...

About Starlink 32920

Starlink 32920 (NORAD 62925) is a starlink constellation satellite (v2 mini) launched Feb 8, 2025 by SPXS of US. It operates in LEO, CIRCULAR orbit with a mass of 730.00 kg.

次回通過

Passes for default location (London). Set your location on the main map for personalized predictions.

高度履歴

Loading altitude history...

軌道要素

1 62925U 25027U 26262.95790586 .00010800 00000-0 40159-3 0 9998
2 62925 43.0004 111.6964 0001422 269.9485 90.1204 15.27565236 91252
Epoch: Sep 19, 2026 • Age: 25 hours

現在のステータス

高度 490.9 km
遠地点 / 近地点 N/A
速度 7.62 km/s
衛星直下点 -31.29°S, 26.46°W
打ち上げ日 Feb 8, 2025
運用期間 1.6 years
タイプ internet

技術仕様

分類 Payload
質量 730.00 kg
乾燥質量 700.00 kg
長さ 0.30 m
スパン 29.00 m
形状 ? Box + pan
製造者 SPXS
バスタイプ Starlink V2M
フェーズステータス In Orbit
所有者/国 SPXS/US

Most Searched